"Period start","avg(HW err(1)/warn(2) (#))","avg(Visibility (m))","avg(Weather code (#))","avg(Precip intensity (mm/h))","min(HW err(1)/warn(2) (#))","max(HW err(1)/warn(2) (#))","std(HW err(1)/warn(2) (#))","med(HW err(1)/warn(2) (#))","min(Visibility (m))","max(Visibility (m))","std(Visibility (m))","med(Visibility (m))","min(Weather code (#))","max(Weather code (#))","std(Weather code (#))","med(Weather code (#))","min(Precip intensity (mm/h))","max(Precip intensity (mm/h))","std(Precip intensity (mm/h))","med(Precip intensity (mm/h))"
2013-10-11 00:00:00,2,40854,0,0.00,2,2,0,2,33908,45313,4221,41544,0,0,0,0,0.00,0.00,0.00,0.00
2013-10-11 00:10:00,2,42185,0,0.00,2,2,0,2,30240,50000,6598,44465,0,0,0,0,0.00,0.00,0.00,0.00
2013-10-11 00:20:00,2,45434,0,0.00,2,2,0,2,30059,50000,6132,48628,0,0,0,0,0.00,0.00,0.00,0.00
2013-10-11 00:30:00,2,44516,0,0.00,2,2,0,2,35177,50000,4926,44880,0,0,0,0,0.00,0.00,0.00,0.00
2013-10-11 00:40:00,2,43182,0,0.00,2,2,0,2,32882,50000,6025,43586,0,0,0,0,0.00,0.00,0.00,0.00
2013-10-11 00:50:00,2,41012,0,0.00,2,2,0,2,32106,50000,5955,42926,0,0,0,0,0.00,0.00,0.00,0.00
2013-10-11 01:00:00,2,45364,0,0.00,2,2,0,2,39829,50000,3010,45284,0,0,0,0,0.00,0.00,0.00,0.00
2013-10-11 01:10:00,2,43382,0,0.00,2,2,0,2,31686,50000,6419,44156,0,0,0,0,0.00,0.00,0.00,0.00
2013-10-11 01:20:00,2,46614,0,0.00,2,2,0,2,37407,50000,4014,48422,0,0,0,0,0.00,0.00,0.00,0.00
2013-10-11 01:30:00,2,42377,0,0.00,2,2,0,2,35295,48420,3490,42643,0,0,0,0,0.00,0.00,0.00,0.00
2013-10-11 01:40:00,2,40156,0,0.00,2,2,0,2,29440,50000,6918,39512,0,0,0,0,0.00,0.00,0.00,0.00
2013-10-11 01:50:00,2,39596,0,0.00,2,2,0,2,32556,50000,5143,37801,0,0,0,0,0.00,0.00,0.00,0.00
2013-10-11 02:00:00,2,43795,0,0.00,2,2,0,2,32937,50000,5721,44752,0,0,0,0,0.00,0.00,0.00,0.00
2013-10-11 02:10:00,2,45168,0,0.00,2,2,0,2,34968,50000,4942,46336,0,0,0,0,0.00,0.00,0.00,0.00
2013-10-11 02:20:00,2,43844,0,0.00,2,2,0,2,35452,50000,4987,43364,0,0,0,0,0.00,0.00,0.00,0.00
2013-10-11 02:30:00,2,40281,0,0.00,2,2,0,2,34185,50000,5561,38782,0,0,0,0,0.00,0.00,0.00,0.00
2013-10-11 02:40:00,2,39354,0,0.00,2,2,0,2,32306,46670,4555,40480,0,0,0,0,0.00,0.00,0.00,0.00
2013-10-11 02:50:00,2,38873,0,0.00,2,2,0,2,32643,48595,6265,36322,0,0,0,0,0.00,0.00,0.00,0.00
2013-10-11 03:00:00,2,37458,0,0.00,2,2,0,2,27534,46999,5761,37702,0,0,0,0,0.00,0.00,0.00,0.00
2013-10-11 03:10:00,2,41276,0,0.00,2,2,0,2,31315,50000,7145,42404,0,0,0,0,0.00,0.00,0.00,0.00
2013-10-11 03:20:00,2,41110,0,0.00,2,2,0,2,29407,50000,6984,41079,0,0,0,0,0.00,0.00,0.00,0.00
2013-10-11 03:30:00,2,39509,0,0.00,2,2,0,2,21671,50000,10586,44584,0,0,0,0,0.00,0.00,0.00,0.00
2013-10-11 03:40:00,2,39403,0,0.00,2,2,0,2,24295,47951,7373,40100,0,0,0,0,0.00,0.00,0.00,0.00
2013-10-11 03:50:00,2,36038,0,0.00,2,2,0,2,24164,50000,8532,33095,0,0,0,0,0.00,0.00,0.00,0.00
2013-10-11 04:00:00,2,42593,0,0.00,2,2,0,2,32644,50000,5096,41932,0,0,0,0,0.00,0.00,0.00,0.00
2013-10-11 04:10:00,2,37782,0,0.00,2,2,0,2,26567,49676,7275,39456,0,0,0,0,0.00,0.00,0.00,0.00
2013-10-11 04:20:00,2,45892,0,0.00,2,2,0,2,39747,50000,4176,47915,0,0,0,0,0.00,0.00,0.00,0.00
2013-10-11 04:30:00,2,41887,0,0.00,2,2,0,2,35641,50000,5082,39207,0,0,0,0,0.00,0.00,0.00,0.00
2013-10-11 04:40:00,2,42077,0,0.00,2,2,0,2,31294,49580,5542,43648,0,0,0,0,0.00,0.00,0.00,0.00
2013-10-11 04:50:00,2,45264,0,0.00,2,2,0,2,37933,50000,4632,46144,0,0,0,0,0.00,0.00,0.00,0.00
2013-10-11 05:00:00,2,43148,0,0.00,2,2,0,2,29552,50000,7143,44668,0,0,0,0,0.00,0.00,0.00,0.00
2013-10-11 05:10:00,2,41896,0,0.00,2,2,0,2,24759,50000,8443,45310,0,0,0,0,0.00,0.00,0.00,0.00
2013-10-11 05:20:00,2,40891,0,0.00,2,2,0,2,29307,50000,6700,39283,0,0,0,0,0.00,0.00,0.00,0.00
2013-10-11 05:30:00,2,44327,0,0.00,2,2,0,2,34271,50000,4041,44737,0,0,0,0,0.00,0.00,0.00,0.00
2013-10-11 05:40:00,2,45037,0,0.00,2,2,0,2,35461,50000,4251,45305,0,0,0,0,0.00,0.00,0.00,0.00
2013-10-11 05:50:00,2,44041,0,0.00,2,2,0,2,35285,50000,5275,42523,0,0,0,0,0.00,0.00,0.00,0.00
2013-10-11 06:00:00,2,43384,0,0.00,2,2,0,2,34978,48534,4185,44010,0,0,0,0,0.00,0.00,0.00,0.00
2013-10-11 06:10:00,2,38828,0,0.00,2,2,0,2,32239,43089,4130,40726,0,0,0,0,0.00,0.00,0.00,0.00
2013-10-11 06:20:00,2,45626,0,0.00,2,2,0,2,31729,50000,5321,47247,0,0,0,0,0.00,0.00,0.00,0.00
2013-10-11 06:30:00,2,46946,0,0.00,2,2,0,2,41196,50000,2683,47618,0,0,0,0,0.00,0.00,0.00,0.00
2013-10-11 06:40:00,2,40384,0,0.00,2,2,0,2,32448,47332,4623,38984,0,0,0,0,0.00,0.00,0.00,0.00
2013-10-11 06:50:00,2,40780,0,0.00,2,2,0,2,32104,48129,4900,41406,0,0,0,0,0.00,0.00,0.00,0.00
2013-10-11 07:00:00,2,46370,0,0.00,2,2,0,2,42337,50000,3049,46750,0,0,0,0,0.00,0.00,0.00,0.00
2013-10-11 07:10:00,2,43857,0,0.00,2,2,0,2,36841,50000,4271,44490,0,0,0,0,0.00,0.00,0.00,0.00
2013-10-11 07:20:00,2,44372,0,0.00,2,2,0,2,39513,47822,2595,44378,0,0,0,0,0.00,0.00,0.00,0.00
2013-10-11 07:30:00,2,45141,0,0.00,2,2,0,2,39597,47866,2371,45750,0,0,0,0,0.00,0.00,0.00,0.00
2013-10-11 07:40:00,2,35160,0,0.00,2,2,0,2,28695,41069,3658,35704,0,0,0,0,0.00,0.00,0.00,0.00
2013-10-11 07:50:00,2,34928,0,0.00,2,2,0,2,31210,39190,2534,33922,0,0,0,0,0.00,0.00,0.00,0.00
2013-10-11 08:00:00,2,36594,0,0.00,2,2,0,2,26973,47675,5473,35962,0,0,0,0,0.00,0.00,0.00,0.00
2013-10-11 08:10:00,2,27866,0,0.00,2,2,0,2,23091,30754,2414,28388,0,0,0,0,0.00,0.00,0.00,0.00
2013-10-11 08:20:00,2,25266,0,0.00,2,2,0,2,23276,27585,1290,25390,0,0,0,0,0.00,0.00,0.00,0.00
2013-10-11 08:30:00,2,23972,0,0.00,2,2,0,2,22041,27407,1484,24067,0,0,0,0,0.00,0.00,0.00,0.00
2013-10-11 08:40:00,2,29882,0,0.00,2,2,0,2,24186,38900,4888,29830,0,0,0,0,0.00,0.00,0.00,0.00
2013-10-11 08:50:00,2,24097,0,0.00,2,2,0,2,15612,30563,4621,24401,0,0,0,0,0.00,0.00,0.00,0.00
2013-10-11 09:00:00,2,19940,22,0.00,2,2,0,2,16661,27164,2843,18925,0,77,33,0,0.00,0.00,0.00,0.00
2013-10-11 09:10:00,2,24306,0,0.00,2,2,0,2,21412,29890,2908,23446,0,0,0,0,0.00,0.00,0.00,0.00
2013-10-11 09:20:00,2,23740,7,0.00,2,2,0,2,15822,26006,2935,25020,0,71,21,0,0.00,0.00,0.00,0.00
2013-10-11 09:30:00,2,18159,77,0.02,2,2,0,2,10900,22911,4213,19192,71,78,2,78,0.00,0.10,0.03,0.00
2013-10-11 09:40:00,2,22330,78,0.01,2,2,0,2,15554,27666,4485,22836,78,78,0,78,0.00,0.05,0.02,0.00
2013-10-11 09:50:00,2,17266,78,0.02,2,2,0,2,15142,23572,2416,16562,78,78,0,78,0.00,0.05,0.02,0.00
2013-10-11 10:00:00,2,22316,58,0.02,2,2,0,2,14411,32146,5288,21920,0,78,29,71,0.00,0.10,0.03,0.00
2013-10-11 10:10:00,2,23724,7,0.00,2,2,0,2,16726,25712,2612,24528,0,71,21,0,0.00,0.00,0.00,0.00
2013-10-11 10:20:00,2,23114,77,0.01,2,2,0,2,15873,30986,4912,22940,71,78,2,78,0.00,0.05,0.02,0.00
2013-10-11 10:30:00,2,23783,78,0.00,2,2,0,2,15440,30034,4038,24300,78,78,0,78,0.00,0.00,0.00,0.00
2013-10-11 10:40:00,2,21611,78,0.00,2,2,0,2,11938,29579,4680,21445,78,78,0,78,0.00,0.00,0.00,0.00
2013-10-11 10:50:00,2,25876,55,0.00,2,2,0,2,14794,36834,6453,26487,0,78,36,78,0.00,0.00,0.00,0.00
2013-10-11 11:00:00,2,33666,0,0.00,2,2,0,2,27969,40461,3969,33756,0,0,0,0,0.00,0.00,0.00,0.00
2013-10-11 11:10:00,2,35038,0,0.00,2,2,0,2,30631,40468,2764,34987,0,0,0,0,0.00,0.00,0.00,0.00
2013-10-11 11:20:00,2,32966,0,0.00,2,2,0,2,26970,40795,4112,32296,0,0,0,0,0.00,0.00,0.00,0.00
2013-10-11 11:30:00,2,34262,0,0.00,2,2,0,2,28384,39495,3409,34308,0,0,0,0,0.00,0.00,0.00,0.00
2013-10-11 11:40:00,2,35506,0,0.00,2,2,0,2,31494,39937,2590,35422,0,0,0,0,0.00,0.00,0.00,0.00
2013-10-11 11:50:00,2,38170,0,0.00,2,2,0,2,34733,42640,2191,37873,0,0,0,0,0.00,0.00,0.00,0.00
2013-10-11 12:00:00,2,39194,0,0.00,2,2,0,2,31543,46578,4091,38790,0,0,0,0,0.00,0.00,0.00,0.00
2013-10-11 12:10:00,2,34068,0,0.00,2,2,0,2,32350,35460,1090,34110,0,0,0,0,0.00,0.00,0.00,0.00
2013-10-11 12:20:00,2,26700,0,0.00,2,2,0,2,22476,31569,2792,26270,0,0,0,0,0.00,0.00,0.00,0.00
2013-10-11 12:30:00,2,34506,0,0.00,2,2,0,2,27108,43693,4305,35060,0,0,0,0,0.00,0.00,0.00,0.00
2013-10-11 12:40:00,2,31830,0,0.00,2,2,0,2,20155,41420,5660,31519,0,0,0,0,0.00,0.00,0.00,0.00
2013-10-11 12:50:00,2,32408,0,0.00,2,2,0,2,28267,35622,2596,33058,0,0,0,0,0.00,0.00,0.00,0.00
2013-10-11 13:00:00,2,34002,0,0.00,2,2,0,2,27163,43462,5194,33100,0,0,0,0,0.00,0.00,0.00,0.00
2013-10-11 13:10:00,2,40188,0,0.00,2,2,0,2,34522,45829,3573,40254,0,0,0,0,0.00,0.00,0.00,0.00
2013-10-11 13:20:00,2,35530,0,0.00,2,2,0,2,33174,38557,1656,35485,0,0,0,0,0.00,0.00,0.00,0.00
2013-10-11 13:30:00,2,34097,0,0.00,2,2,0,2,27901,40097,3772,34562,0,0,0,0,0.00,0.00,0.00,0.00
2013-10-11 13:40:00,2,31633,0,0.00,2,2,0,2,27660,35666,3203,31448,0,0,0,0,0.00,0.00,0.00,0.00
2013-10-11 13:50:00,2,31294,0,0.00,2,2,0,2,26572,36372,2977,31577,0,0,0,0,0.00,0.00,0.00,0.00
2013-10-11 14:00:00,2,34470,0,0.00,2,2,0,2,26587,38923,3822,35806,0,0,0,0,0.00,0.00,0.00,0.00
2013-10-11 14:10:00,2,29096,43,0.00,2,2,0,2,15700,37598,6614,32146,0,71,35,71,0.00,0.00,0.00,0.00
2013-10-11 14:20:00,2,33476,0,0.00,2,2,0,2,28525,36555,2567,33745,0,0,0,0,0.00,0.00,0.00,0.00
2013-10-11 14:30:00,2,39775,0,0.00,2,2,0,2,28199,48602,5077,41074,0,0,0,0,0.00,0.00,0.00,0.00
2013-10-11 14:40:00,2,39606,0,0.00,2,2,0,2,28757,48675,7380,42314,0,0,0,0,0.00,0.00,0.00,0.00
2013-10-11 14:50:00,2,40085,0,0.00,2,2,0,2,32698,47063,5040,38930,0,0,0,0,0.00,0.00,0.00,0.00
2013-10-11 15:00:00,2,36338,55,0.00,2,2,0,2,18404,48292,10272,40158,0,78,34,78,0.00,0.05,0.01,0.00
2013-10-11 15:10:00,2,41976,0,0.00,2,2,0,2,31791,50000,6332,42430,0,0,0,0,0.00,0.00,0.00,0.00
2013-10-11 15:20:00,2,28964,0,0.00,2,2,0,2,15414,47784,13391,21860,0,0,0,0,0.00,0.00,0.00,0.00
2013-10-11 15:30:00,2,44908,0,0.00,2,2,0,2,39355,50000,2955,44480,0,0,0,0,0.00,0.00,0.00,0.00
2013-10-11 15:40:00,2,41275,0,0.00,2,2,0,2,31670,48712,5861,41380,0,0,0,0,0.00,0.00,0.00,0.00
2013-10-11 15:50:00,2,33274,0,0.00,2,2,0,2,24747,42589,5131,31744,0,0,0,0,0.00,0.00,0.00,0.00
2013-10-11 16:00:00,2,36952,0,0.00,2,2,0,2,32034,44456,3626,37221,0,0,0,0,0.00,0.00,0.00,0.00
2013-10-11 16:10:00,2,42545,0,0.00,2,2,0,2,32358,47671,4635,42582,0,0,0,0,0.00,0.00,0.00,0.00
2013-10-11 16:20:00,2,31537,0,0.00,2,2,0,2,23605,40849,5914,31748,0,0,0,0,0.00,0.00,0.00,0.00
2013-10-11 16:30:00,2,21177,53,0.00,2,2,0,2,13831,35754,7632,19600,0,78,35,74,0.00,0.00,0.00,0.00
2013-10-11 16:40:00,2,12536,78,0.01,2,2,0,2,10207,15441,1599,12236,78,78,0,78,0.00,0.05,0.02,0.00
2013-10-11 16:50:00,2,8826,78,0.03,2,2,0,2,6293,11996,1981,8588,77,78,0,78,0.00,0.05,0.02,0.05
2013-10-11 17:00:00,2,19395,77,0.02,2,2,0,2,8323,24763,4447,19692,71,78,3,78,0.00,0.05,0.02,0.00
2013-10-11 17:10:00,2,23902,77,0.00,2,2,0,2,21839,26882,1700,23178,71,78,2,78,0.00,0.00,0.00,0.00
2013-10-11 17:20:00,2,28893,78,0.00,2,2,0,2,22045,36093,4277,29224,78,78,0,78,0.00,0.00,0.00,0.00
2013-10-11 17:30:00,2,20190,78,0.00,2,2,0,2,16739,25186,2753,19030,78,78,0,78,0.00,0.00,0.00,0.00
2013-10-11 17:40:00,2,20185,31,0.00,2,2,0,2,15789,25521,2379,20034,0,78,38,0,0.00,0.00,0.00,0.00
2013-10-11 17:50:00,2,20478,0,0.00,2,2,0,2,17662,22816,1891,20858,0,0,0,0,0.00,0.00,0.00,0.00
2013-10-11 18:00:00,2,19217,0,0.00,2,2,0,2,15499,25527,2700,18730,0,0,0,0,0.00,0.00,0.00,0.00
2013-10-11 18:10:00,2,20387,61,0.01,2,2,0,2,16041,25992,3500,20292,0,78,31,78,0.00,0.05,0.02,0.00
2013-10-11 18:20:00,2,21096,78,0.00,2,2,0,2,17861,26264,2496,20415,78,78,0,78,0.00,0.00,0.00,0.00
2013-10-11 18:30:00,2,15777,78,0.00,2,2,0,2,13300,18883,1842,15278,78,78,0,78,0.00,0.00,0.00,0.00
2013-10-11 18:40:00,2,11863,78,0.00,2,2,0,2,10993,13620,900,11566,78,78,0,78,0.00,0.00,0.00,0.00
2013-10-11 18:50:00,2,13417,78,0.01,2,2,0,2,10090,16375,1942,13329,78,78,0,78,0.00,0.05,0.02,0.00
2013-10-11 19:00:00,2,19580,78,0.00,2,2,0,2,16763,22417,1730,20009,78,78,0,78,0.00,0.00,0.00,0.00
2013-10-11 19:10:00,2,14309,76,0.03,2,2,0,2,8853,19950,3967,14544,71,78,3,78,0.00,0.05,0.03,0.03
2013-10-11 19:20:00,2,10908,73,0.07,2,2,0,2,9639,12839,934,10654,71,78,3,71,0.05,0.10,0.02,0.05
2013-10-11 19:30:00,2,8640,73,0.20,2,2,0,2,3685,14201,3845,9174,71,77,3,71,0.05,0.40,0.12,0.20
2013-10-11 19:40:00,2,3805,71,0.19,2,2,0,2,3280,4555,456,3648,71,71,0,71,0.10,0.35,0.08,0.17
2013-10-11 19:50:00,2,4006,71,0.52,2,2,0,2,2329,6228,1096,3777,71,71,0,71,0.15,1.75,0.45,0.28
2013-10-11 20:00:00,2,3922,71,0.37,2,2,0,2,2864,5648,800,3682,71,71,0,71,0.25,0.60,0.13,0.30
2013-10-11 20:10:00,2,3793,71,0.45,2,2,0,2,2908,5550,783,3573,71,71,0,71,0.15,0.75,0.20,0.43
2013-10-11 20:20:00,2,4015,71,0.72,2,2,0,2,2508,6661,1510,3199,71,71,0,71,0.15,1.25,0.42,0.88
2013-10-11 20:30:00,2,2304,71,1.08,2,2,0,2,1688,3034,360,2216,71,71,0,71,0.35,2.05,0.53,1.10
2013-10-11 20:40:00,2,3067,71,0.92,2,2,0,2,1637,5276,1230,3036,71,71,0,71,0.20,2.05,0.55,0.97
2013-10-11 20:50:00,2,2885,71,1.17,2,2,0,2,1320,5231,1256,2544,71,71,0,71,0.30,2.15,0.56,1.27
2013-10-11 21:00:00,2,1946,71,2.06,2,2,0,2,1059,2700,531,1898,71,71,0,71,1.20,5.15,1.08,1.90
2013-10-11 21:10:00,2,1422,71,2.35,2,2,0,2,1172,1885,240,1361,71,71,0,71,1.40,4.05,0.73,2.27
2013-10-11 21:20:00,2,1259,71,3.31,2,2,0,2,926,1675,237,1270,71,71,0,71,1.45,4.45,0.90,3.25
2013-10-11 21:30:00,2,1410,71,2.69,2,2,0,2,1182,1712,157,1414,71,71,0,71,2.10,4.20,0.63,2.53
2013-10-11 21:40:00,2,1857,71,2.69,2,2,0,2,1037,3033,768,1462,71,71,0,71,1.20,3.80,0.84,2.83
2013-10-11 21:50:00,2,1512,71,2.40,2,2,0,2,1037,1934,288,1538,71,71,0,71,1.70,3.10,0.46,2.40
2013-10-11 22:00:00,2,1738,71,1.91,2,2,0,2,1096,2582,444,1687,71,71,0,71,0.90,3.25,0.58,1.85
2013-10-11 22:10:00,2,2213,71,1.96,2,2,0,2,1259,3312,612,2202,71,71,0,71,1.35,2.75,0.49,1.80
2013-10-11 22:20:00,2,3771,71,1.05,2,2,0,2,2626,6319,1268,3198,71,71,0,71,0.30,1.85,0.49,0.92
2013-10-11 22:30:00,2,10820,71,0.61,2,2,0,2,6093,17813,3572,10456,71,71,0,71,0.35,0.85,0.14,0.57
2013-10-11 22:40:00,2,22165,70,0.10,2,2,0,2,14727,32838,5525,20338,64,74,3,71,0.00,0.25,0.09,0.08
2013-10-11 22:50:00,2,33989,28,0.09,2,2,0,2,10531,48703,14082,40312,0,71,35,0,0.00,0.60,0.19,0.00
2013-10-11 23:00:00,2,28473,36,0.01,2,2,0,2,23059,32771,3055,29076,0,71,36,36,0.00,0.15,0.05,0.00
2013-10-11 23:10:00,2,24962,71,0.07,2,2,0,2,14822,37706,7926,24756,71,71,0,71,0.00,0.30,0.10,0.00
2013-10-11 23:20:00,2,28842,28,0.02,2,2,0,2,19149,36046,4846,28370,0,71,35,0,0.00,0.20,0.06,0.00
2013-10-11 23:30:00,2,31033,0,0.00,2,2,0,2,24962,37482,4644,31382,0,0,0,0,0.00,0.00,0.00,0.00
2013-10-11 23:40:00,2,28903,0,0.00,2,2,0,2,13628,39359,7208,29422,0,0,0,0,0.00,0.00,0.00,0.00
2013-10-11 23:50:00,2,30638,0,0.00,2,2,0,2,25771,36399,3616,30547,0,0,0,0,0.00,0.00,0.00,0.00
